Skip Page Navigation
NASA JPL Caltech
NASA Logo - Jet Propulsion Laboratory + View the NASA Portal
+ Center for Near-Earth Object Studies
JPL Home Earth Solar System Stars & Galaxies Technology
JPL Solar System Dynamics
BODIES ORBITS EPHEMERIDES TOOLS PHYSICAL DATA DISCOVERY FAQ SITE MAP
JPL Small-Body Database Browser
Search: [ help ]  
234341 (2001 FZ57)
Classification: Aten [NEO]          SPK-ID: 2234341
Ephemeris | Orbit Diagram | Orbital Elements | Mission Design | Physical Parameters | Discovery Circumstances | Close-Approach Data ]

[ show orbit diagram ]
Orbital Elements at Epoch 2459200.5 (2020-Dec-17.0) TDB
Reference: JPL 85 (heliocentric ecliptic J2000)
 Element Value Uncertainty (1-sigma)   Units 
e .6042202045865215 1.083e-07  
a .9441675314341311 3.1545e-09 au
q .3736824324270495 1.0135e-07 au
i 20.6673485479036 1.138e-05 deg
node 22.09879463663678 1.5487e-05 deg
peri 339.9737843489931 1.9943e-05 deg
M 32.14678921686492 2.8545e-05 deg
tp 2459170.576862990495
(2020-Nov-17.07686299)
2.6502e-05 TDB
period 335.0981415515746
0.92
1.6794e-06
4.598e-09
d
yr
n 1.074312135343767 5.384e-09 deg/d
Q 1.514652630441213 5.0605e-09 au
  Orbit Determination Parameters
   # obs. used (total)      274  
   data-arc span      10975 days (30.05 yr)  
   first obs. used      1991-04-18  
   last obs. used      2021-05-05  
   planetary ephem.      DE441  
   SB-pert. ephem.      SB441-N16  
   condition code      0  
   norm. resid. RMS      .46052  
   source      ORB  
   producer      Otto Matic  
   solution date      2021-May-06 06:01:41  

Additional Information
 Earth MOID = .157147 au 
 Jupiter MOID = 3.95505 au 
 T_jup = 6.146 
[ show covariance matrix ]

Ephemeris | Orbit Diagram | Orbital Elements | Mission Design | Physical Parameters | Discovery Circumstances | Close-Approach Data ]

Physical Parameter Table
Parameter Symbol Value Units Sigma Reference Notes
absolute magnitude H 18.83   n/a MPCxxxxx  
diameter diameter 0.344 km 0.055 urn:nasa:pds:neowise_diameters_albedos::2.0[neos] (http://adsabs.harvard.edu/abs/2011ApJ...743..156M)  
geometric albedo albedo 0.493   0.194 urn:nasa:pds:neowise_diameters_albedos::2.0[neos] (http://adsabs.harvard.edu/abs/2011ApJ...743..156M)  

234341 (2001 FZ57)          Discovered 2001-Mar-21 by LONEOS at Anderson Mesa
Reference: 20100330/Numbers.arcLast Updated: 2010-04-05

[ show close-approach data ]
Ephemeris | Orbit Diagram | Orbital Elements | Mission Design | Physical Parameters | Discovery Circumstances | Close-Approach Data ]
ABOUT SSD CREDITS/AWARDS PRIVACY/COPYRIGHT GLOSSARY LINKS
FirstGov 2021-May-13 17:03 UT
(server date/time)  
NASA Home Page
Site Manager:   Ryan S. Park
Webmaster  Alan B. Chamberlin